Location: Bailen
(14.1842°N, 120.7958°E)
Time: 18:43:52
(UTC+00:00)

Okean 3 Rocket - Pass Details

Date: 12 January 2026
Orbit: 610 x 637 km, 82.5° (Epoch: 17 February)

Event Time Altitude Azimuth Distance (km) Brightness Sun altitude
Rises 21:07:20 0° 187° (S) 2,858 7.1 -18.4°
Reaches altitude 10° 21:09:33 10° 188° (S) 1,956 6.2 -17.9°
Maximum altitude 21:13:51 77° 273° (W) 628 3.4 -16.9°
Drops below altitude 10° 21:18:12 10° 1° (N) 1,966 6.0 -15.9°
Sets 21:20:26 0° 2° (N) 2,874 6.8 -15.4°
